Location: Hylvaty SDH
(49.9612°N, 16.4057°E)
Time: 02:52:28
(UTC+01:00)

Tiros 1 despin weight - Pass Details

Date: 21 January 2021
Orbit: 593 x 642 km, 48.2° (Epoch: 24 February)

Event Time Altitude Azimuth Distance (km) Brightness Sun altitude
Rises 17:07:34 0° 253° (WSW) 2,865 ? -6.1°
Reaches altitude 10° 17:09:54 10° 250° (WSW) 1,953 ? -6.5°
Maximum altitude 17:14:19 64° 170° (S) 668 ? -7.1°
Drops below altitude 10° 17:18:42 10° 89° (E) 1,933 ? -7.8°
Enters shadow 17:19:03 - 88° (E) 2,066 ? -7.8°
